Retour au catalogue

STARLINK-33603

ActifCommunicationsVLEO
NORAD 63282·PAYLOAD·🇺🇸 United States

Lancé Mar 15, 2025 depuis Cape Canaveral Space Force Station

Loading…

Prochains Passages (prochaines 24 heures)

TLE

FraisSource: CelesTrak SupGP

Époque: Sep 14, 2026, 21:30 UTC

1 63282C 25053T   26257.89631944  .00029117  00000+0  10548-2 0  2578
2 63282  42.9991 253.5273 0001446 264.0961 201.5581 15.27558806    17

Suivez STARLINK-33603 en temps réel avec AllMySat

Download on the App Store